Terminal Aerodrome Forecast
Issued by NWS Spokane, WA

Home | Current Version | Previous Version | Text Only | Print | Product List | Glossary On
Versions: 1 2 3 4 5 6 7 8 9 10 11 12 13 14 15 16 17 18 19 20 21 22 23 24
000
FTUS46 KOTX 021738
TAFGEG
TAF
KGEG 021738Z 0218/0318 16006KT P6SM SCT200
     FM022000 27006KT P6SM SCT200
      TEMPO 0223/0303 6SM FU
     FM030600 VRB03KT P6SM BKN250=

USA.gov is the U.S. government's official web portal to all federal, state and local government web resources and services.